This is the latest recevied weather packets stored in our database for station/object KC1TWD. If no packets are shown the sender has not sent any weather packets the latest 10 day(s).
| Time | Temp. | Humidity | Pressure | Rain* | Wind** | Luminosity | Snow |
|---|---|---|---|---|---|---|---|
| 1777876524 | 4.44° C | 79% | 1009.4 hPa | 0 mm | - | - | - |
| 1777876221 | 4.44° C | 84% | 1009.4 hPa | 0 mm | - | - | - |
| 1777875917 | 3.89° C | 84% | 1009.3 hPa | 0 mm | - | - | - |
| 1777875613 | 3.89° C | 86% | 1009.5 hPa | 0 mm | - | - | - |
| 1777875310 | 3.33° C | 84% | 1009.4 hPa | 0 mm | - | - | - |
| 1777875007 | 2.78° C | 88% | 1009.4 hPa | 0 mm | - | - | - |
| 1777874703 | 2.78° C | 89% | 1009.4 hPa | 0 mm | - | - | - |
| 1777874399 | 2.22° C | 91% | 1009.6 hPa | 0 mm | - | - | - |
| 1777874097 | 2.22° C | 91% | 1009.5 hPa | 0 mm | - | - | - |
| 1777873795 | 1.67° C | 92% | 1009.7 hPa | 0 mm | - | - | - |
| 1777873491 | 1.67° C | 92% | 1009.7 hPa | 0 mm | - | - | - |
| 1777873188 | 1.67° C | 92% | 1009.6 hPa | 0 mm | - | - | - |
| 1777872885 | 1.67° C | 93% | 1009.5 hPa | 0 mm | - | - | - |
| 1777872583 | 1.11° C | 93% | 1009.6 hPa | 0 mm | - | - | - |
| 1777872280 | 1.11° C | 93% | 1009.6 hPa | 0 mm | - | - | - |
| 1777871978 | 1.11° C | 93% | 1009.6 hPa | 0 mm | - | - | - |
| 1777871673 | 1.11° C | 93% | 1009.5 hPa | 0 mm | - | - | - |
| 1777871369 | 0.56° C | 93% | 1009.4 hPa | 0 mm | - | - | - |
| 1777871067 | 0.56° C | 93% | 1009.5 hPa | 0 mm | - | - | - |
| 1777870759 | - | - | - | 0 mm | - | - | - |
| 1777870454 | - | - | - | 0 mm | - | - | - |
| 1777870151 | - | - | - | 0 mm | - | - | - |
| 1777869849 | - | - | - | 0 mm | - | - | - |
| 1777869546 | 0° C | 94% | 1009.7 hPa | 0 mm | - | - | - |
| 1777869243 | 0° C | 94% | 1009.7 hPa | 0 mm | - | - | - |
* Rain latest hour (hover to see other rain measurements)
** Current wind speed in m/s (hover to see current wind gust speed)